This demonstration page uses our WeatherBlox Daily Observations layout. Learn more.

Left ArrowRight Arrow

Hourly Observations for July 7, 2019

Temp ( °F °C ) Dew Point ( °F °C ) Humidity (%) Winds ( mph kmh ) Pressure ( in mb ) Visibility ( mi km ) Precip ( " mm )
12:53 am 00:53 Clear with Mist and Fog 74 23.3 73 22.8 97 97 N N/A 29.95 1014 4 6 N/A
1:14 am 01:14 Clear with Mist and Fog 74 23.3 73 22.8 97 97 N N/A 29.94 1014 3 4 N/A
1:34 am 01:34 Clear with Mist and Fog 73 22.8 73 22.8 100 100 N N/A 29.94 1014 3 5 N/A
1:53 am 01:53 Clear with Mist and Fog 73 22.8 73 22.8 100 100 N N/A 29.93 1014 4 6 N/A
2:53 am 02:53 Clear with Mist and Fog 72 22.2 72 22.2 100 100 N N/A 29.93 1013 3 4 N/A
3:08 am 03:08 Clear with Mist and Fog 72 22.2 71 21.7 97 97 N N/A 29.92 1013 4 6 N/A
3:53 am 03:53 Clear with Mist and Fog 72 22.2 71 21.7 97 97 N N/A 29.92 1013 5 8 N/A
4:53 am 04:53 Clear with Mist and Fog 71 21.7 71 21.7 100 100 N N/A 29.92 1013 5 8 N/A
5:53 am 05:53 Clear with Mist and Fog 71 21.7 70 21.1 96 96 N N/A 29.93 1014 4 6 N/A
6:53 am 06:53 Sunny with Mist and Fog 70 21.1 69 20.6 97 97 N N/A 29.94 1014 5 8 N/A
7:53 am 07:53 Sunny 75 23.9 72 22.2 90 90 N N/A 29.94 1014 8 13 N/A
8:53 am 08:53 Sunny 78 25.6 73 22.8 85 85 VRB 3 6 29.94 1014 7 11 N/A
9:30 am 09:30 Mostly Cloudy 78 25.6 73 22.8 85 85 N N/A 29.94 1014 8 13 N/A
9:53 am 09:53 Mostly Cloudy 79 26.1 73 22.8 82 82 N N/A 29.95 1014 9 14 N/A
10:03 am 10:03 Cloudy 80 26.7 74 23.3 82 82 N N/A 29.94 1014 9 14 N/A
10:53 am 10:53 Cloudy 81 27.2 74 23.3 79 79 N N/A 29.96 1015 9 14 N/A
11:53 am 11:53 Mostly Cloudy with Haze 83 28.3 74 23.3 74 74 VRB 7 11 29.96 1014 6 10 N/A
12:00 pm 12:00 Mostly Cloudy with Haze 84 28.9 75 23.9 74 74 NNE 6 9 29.94 1014 6 10 N/A
12:53 pm 12:53 Sunny 86 30 75 23.9 70 70 VRB 7 11 29.95 1014 8 13 N/A
1:53 pm 13:53 Mostly Sunny 87 30.6 73 22.8 63 63 VRB 6 9 29.93 1014 10 16 N/A
2:53 pm 14:53 Mostly Sunny 88 31.1 73 22.8 61 61 WNW 9 15 29.90 1013 10 16 N/A
3:53 pm 15:53 Mostly Cloudy 86 30 72 22.2 63 63 NNW 8 13 29.91 1013 10 16 N/A
4:53 pm 16:53 Partly Cloudy 84 28.9 74 23.3 72 72 N 8 13 29.90 1013 9 14 N/A
5:53 pm 17:53 Mostly Sunny 85 29.4 72 22.2 65 65 N 8 13 29.88 1012 10 16 N/A
6:53 pm 18:53 Sunny 84 28.9 71 21.7 65 65 N 12 19 29.89 1012 10 16 N/A
7:53 pm 19:53 Sunny 82 27.8 69 20.6 65 65 NNE 10 17 29.90 1013 10 16 N/A
8:53 pm 20:53 Sunny 79 26.1 69 20.6 72 72 N 12 19 29.92 1013 10 16 N/A
9:24 pm 21:24 Mostly Clear 77 25 69 20.6 77 77 N 9 15 29.91 1013 10 16 N/A
9:53 pm 21:53 Clear 76 24.4 69 20.6 79 79 N 7 11 29.93 1014 10 16 N/A
10:53 pm 22:53 Clear 75 23.9 69 20.6 82 82 NE 6 9 29.95 1014 10 16 N/A
11:53 pm 23:53 Clear 71 21.7 69 20.6 94 94 N N/A 29.96 1014 10 16 N/A

Powered by AerisWeather